TimeEST,TemperatureF,Dew PointF,Humidity,Sea Level PressureIn,VisibilityMPH,Wind Direction,Wind SpeedMPH,Gust SpeedMPH,PrecipitationIn,Events,Conditions,WindDirDegrees,DateUTC
12:44 AM,60.8,55.4,82,30.27,10.0,East,4.6,-,N/A,,Mostly Cloudy,90,2013-01-09 05:44:00
12:53 AM,61.0,55.9,83,30.29,10.0,East,4.6,-,N/A,,Mostly Cloudy,100,2013-01-09 05:53:00
1:53 AM,61.0,57.0,87,30.29,9.0,Calm,Calm,-,N/A,,Overcast,0,2013-01-09 06:53:00
2:04 AM,60.8,57.2,88,30.27,5.0,East,4.6,-,N/A,,Overcast,90,2013-01-09 07:04:00
2:28 AM,60.8,57.2,88,30.27,8.0,Calm,Calm,-,N/A,,Overcast,0,2013-01-09 07:28:00
2:53 AM,61.0,57.0,87,30.29,9.0,East,3.5,-,N/A,,Overcast,80,2013-01-09 07:53:00
3:53 AM,61.0,55.9,83,30.28,8.0,ENE,3.5,-,N/A,,Overcast,70,2013-01-09 08:53:00
4:23 AM,60.8,55.4,82,30.26,5.0,Variable,5.8,-,0.01,,Overcast,0,2013-01-09 09:23:00
4:53 AM,60.1,55.9,86,30.28,5.0,East,3.5,-,0.01,,Overcast,90,2013-01-09 09:53:00
5:42 AM,60.8,57.2,88,30.27,1.8,ENE,3.5,-,N/A,,Overcast,70,2013-01-09 10:42:00
5:53 AM,60.1,57.0,90,30.29,1.2,NE,3.5,-,N/A,,Overcast,50,2013-01-09 10:53:00
6:53 AM,60.1,57.0,90,30.30,0.8,NE,3.5,-,N/A,,Overcast,50,2013-01-09 11:53:00
7:27 AM,60.8,57.2,88,30.30,1.2,NE,3.5,-,N/A,,Overcast,40,2013-01-09 12:27:00
7:44 AM,60.8,57.2,88,30.31,2.0,Calm,Calm,-,N/A,,Overcast,0,2013-01-09 12:44:00
7:53 AM,61.0,57.9,90,30.34,1.5,Calm,Calm,-,N/A,,Overcast,0,2013-01-09 12:53:00
8:53 AM,62.1,57.9,86,30.36,1.5,NNE,3.5,-,N/A,,Overcast,20,2013-01-09 13:53:00
9:31 AM,62.6,59.0,88,30.35,2.0,NE,4.6,-,N/A,,Overcast,50,2013-01-09 14:31:00
9:44 AM,62.6,59.0,88,30.35,0.8,ENE,4.6,-,N/A,,Overcast,60,2013-01-09 14:44:00
9:53 AM,63.0,60.1,90,30.38,0.8,East,3.5,-,N/A,,Overcast,80,2013-01-09 14:53:00
10:01 AM,64.4,60.8,88,30.36,1.5,ENE,3.5,-,N/A,,Overcast,60,2013-01-09 15:01:00
10:06 AM,64.4,60.8,88,30.36,3.0,Calm,Calm,-,N/A,,Overcast,0,2013-01-09 15:06:00
10:53 AM,66.9,61.0,81,30.38,10.0,NE,3.5,-,N/A,,Overcast,50,2013-01-09 15:53:00
11:06 AM,66.2,60.8,83,30.35,10.0,NE,4.6,-,N/A,,Overcast,50,2013-01-09 16:06:00
11:53 AM,69.1,62.1,78,30.35,10.0,East,3.5,-,N/A,,Overcast,90,2013-01-09 16:53:00
12:51 PM,73.4,62.6,69,30.30,10.0,ENE,3.5,-,N/A,,Overcast,60,2013-01-09 17:51:00
12:53 PM,73.9,63.0,68,30.32,10.0,ENE,3.5,-,N/A,,Overcast,70,2013-01-09 17:53:00
1:50 PM,73.4,64.4,73,30.29,10.0,ENE,5.8,-,N/A,,Mostly Cloudy,60,2013-01-09 18:50:00
1:53 PM,73.9,64.0,71,30.31,10.0,ENE,5.8,-,N/A,,Mostly Cloudy,60,2013-01-09 18:53:00
2:53 PM,73.9,64.9,73,30.31,10.0,NE,4.6,-,0.00,,Mostly Cloudy,50,2013-01-09 19:53:00
3:53 PM,77.0,66.0,69,30.30,10.0,ENE,6.9,-,N/A,,Mostly Cloudy,60,2013-01-09 20:53:00
4:25 PM,75.2,64.4,69,30.28,10.0,NE,6.9,-,N/A,,Mostly Cloudy,50,2013-01-09 21:25:00
4:53 PM,75.9,64.9,69,30.31,10.0,NE,6.9,-,N/A,,Scattered Clouds,50,2013-01-09 21:53:00
5:00 PM,75.2,64.4,69,30.29,10.0,NE,6.9,-,N/A,,Mostly Cloudy,50,2013-01-09 22:00:00
5:09 PM,75.2,64.4,69,30.29,10.0,ENE,5.8,-,N/A,,Mostly Cloudy,60,2013-01-09 22:09:00
5:53 PM,73.0,64.9,76,30.32,10.0,NE,4.6,-,N/A,,Mostly Cloudy,50,2013-01-09 22:53:00
6:53 PM,70.0,64.9,84,30.33,10.0,Calm,Calm,-,N/A,,Clear,0,2013-01-09 23:53:00
7:53 PM,70.0,64.9,84,30.33,10.0,ENE,4.6,-,N/A,,Clear,60,2013-01-10 00:53:00
8:51 PM,69.8,66.2,88,30.33,10.0,East,4.6,-,N/A,,Mostly Cloudy,90,2013-01-10 01:51:00
8:53 PM,70.0,66.0,87,30.35,10.0,East,4.6,-,N/A,,Mostly Cloudy,90,2013-01-10 01:53:00
9:04 PM,69.8,66.2,88,30.33,10.0,East,4.6,-,N/A,,Overcast,80,2013-01-10 02:04:00
9:53 PM,71.1,66.0,84,30.36,10.0,East,5.8,-,N/A,,Overcast,100,2013-01-10 02:53:00
10:53 PM,71.1,66.0,84,30.37,10.0,East,5.8,-,N/A,,Overcast,80,2013-01-10 03:53:00
11:27 PM,71.6,64.4,78,30.35,10.0,East,6.9,-,N/A,,Overcast,80,2013-01-10 04:27:00
11:53 PM,70.0,64.9,84,30.38,10.0,East,8.1,-,N/A,,Overcast,100,2013-01-10 04:53:00